Regional Weather Roundup
Issued by NWS

Home | Current Version | Previous Version | Text Only | Print | Product List | Glossary Off
Versions: 1 2 3 4 5 6 7 8 9 10 11 12 13 14 15 16 17 18 19 20 21 22 23 24 25 26 27 28 29 30 31 32 33 34 35 36 37 38 39 40 41 42 43 44 45 46 47 48 49 50

718
ASUS43 KDMX 230006
RWRIA

WEATHER ROUNDUP FOR IOWA
NATIONAL WEATHER SERVICE DES MOINES IA
700 PM CDT TUE AUG 22 2017

NOTE: "FAIR" INDICATES FEW OR NO CLOUDS BELOW 12,000 FEET WITH NO
SIGNIFICANT WEATHER AND/OR OBSTRUCTIONS TO VISIBILITY.

* - THESE STATIONS ARE NOT NWS STATIONS...THUS NOT UNDER NWS
QUALITY CONTROL.  THEY ALSO DO NOT REPORT WEATHER SUCH
AS PRECIPITATION OR FOG.

IAZ001>003-012>014-020>022-031>034-043>046-230100-
   NORTHWEST IOWA

CITY           SKY/WX    TMP DP  RH WIND       PRES   REMARKS
CARROLL *      SUNNY     72  54  53 NW8G16    30.12S
CHEROKEE *     SUNNY     71  49  44 NW8       30.13F
DENISON *      SUNNY     70  55  60 NW7       30.14F
LE MARS *      SUNNY    102 N/A N/A NW5       30.14S
ORANGE CITY *  SUNNY     72  52  49 N8        30.14F
SHELDON *      SUNNY     70  52  52 NW6G13    30.12F
SIOUX CITY     SUNNY     72  52  49 NW9       30.13F
6HR MIN TEMP:  72; 6HR MAX TEMP:  75;

SPENCER        SUNNY     72  51  47 NW8       30.12F
6HR MIN TEMP:  72; 6HR MAX TEMP:  75;

STORM LAKE *   SUNNY     68  52  56 NW7       30.13F
$$

IAZ055>058-069>071-079>083-090>094-230100-
   SOUTHWEST IOWA

CITY           SKY/WX    TMP DP  RH WIND       PRES   REMARKS
ATLANTIC *     SUNNY     70  54  56 NW6       30.13S
AUDUBON *      SUNNY     72  54  53 NW7       30.14S
CLARINDA *     SUNNY     72  54  53 N9        30.14S
COUNCIL BLFS * SUNNY     70  55  60 NW9       30.14S
CRESTON *      SUNNY     72  50  46 NW12G18   30.13S
HARLAN  *      SUNNY     70  54  56 NW7       30.17S
LAMONI         SUNNY     74  51  44 N10       30.10S
6HR MIN TEMP:  74; 6HR MAX TEMP:  78;

RED OAK *      SUNNY     73  55  53 N6        30.13S
SHENANDOAH *   SUNNY     72  55  56 VRB6      30.13F
$$

IAZ047>049-059>061-072>074-084-230100-
   CENTRAL IOWA

CITY           SKY/WX    TMP DP  RH WIND       PRES   REMARKS
AMES           SUNNY     71  52  50 NW12      30.09F
6HR MIN TEMP:  71; 6HR MAX TEMP:  74;

ANKENY *       SUNNY     73  48  40 NW12G21   30.10F
BOONE *        SUNNY     72  50  46 NW10      30.09F
CHARITON *     SUNNY     72  50  46 NW14      30.09S
DES MOINES     MOSUNNY   74  49  41 NW10      30.08F
6HR MIN TEMP:  74; 6HR MAX TEMP:  78;

GRINNELL*      SUNNY     68  53  59 NW10      30.09F
KNOXVILLE *    SUNNY     73  48  40 NW9G15    30.07S
MARSHALLTOWN   SUNNY     70  52  52 NW10      30.08S
6HR MIN TEMP:  70; 6HR MAX TEMP:  74;

NEWTON *       SUNNY     70  52  52 NW12      30.09S
PELLA *        SUNNY     73  52  47 N7        30.09S
PERRY *          N/A     72  48  42 NW7       30.10F
$$

IAZ004>006-015-016-023>025-035-036-230100-
   NORTH CENTRAL IOWA

CITY           SKY/WX    TMP DP  RH WIND       PRES   REMARKS
ALGONA *       SUNNY     72  50  46 NW7       30.11S HAZE
CLARION *      SUNNY     68  54  60 NW9       30.10S
ESTHERVILLE    SUNNY     69  51  52 NW8       30.11S
6HR MIN TEMP:  69; 6HR MAX TEMP:  72;

FORT DODGE *   SUNNY     70  50  49 NW5       30.10F
MASON CITY     SUNNY     69  49  48 NW13      30.10S
6HR MIN TEMP:  69; 6HR MAX TEMP:  73;

FOREST CITY *    N/A     70  48  46 NW10      30.09F
WEBSTER CITY * SUNNY     70  54  56 NW7       30.08F
IOWA FALLS *     N/A     71  52  50 NW9       30.10S
$$

IAZ007>011-017>019-026>030-037>042-050>054-066-230100-
   NORTHEAST IOWA

CITY           SKY/WX    TMP DP  RH WIND       PRES   REMARKS
CEDAR RAPIDS   CLEAR     70  52  52 NW10      30.04S
6HR MIN TEMP:  70; 6HR MAX TEMP:  76;

CHARLES CITY * SUNNY     70  50  49 NW10      30.07F
CLINTON *      CLEAR     69  55  60 NW8       30.02R
DECORAH *      CLEAR     70  50  49 VRB7      30.03F
DUBUQUE        CLEAR     69  50  50 NW10      30.03S
6HR MIN TEMP:  69; 6HR MAX TEMP:  74;

MONTICELLO *   CLEAR     72  52  49 NW9G15    30.03S
OELWEIN *      PTCLDY    68  54  60 NW10      30.07S
WATERLOO       PTCLDY    70  49  47 NW8       30.05S
6HR MIN TEMP:  70; 6HR MAX TEMP:  74;

$$

IAZ064-065-067-068-078-230100-
   EAST CENTRAL IOWA

CITY           SKY/WX    TMP DP  RH WIND       PRES   REMARKS
DAVENPORT      CLEAR     71  52  50 NW10      30.04R
6HR MIN TEMP:  71; 6HR MAX TEMP:  77;

IOWA CITY      CLEAR     74  51  44 NW15      30.05S
6HR MIN TEMP:  74; 6HR MAX TEMP:  78;

MT. PLEASANT * CLEAR     72  51  47 NW9G17    30.04S
MUSCATINE *    CLEAR     72  52  49 N10       30.03S
QUAD CITIES    CLEAR     74  50  42 NW15G24   30.01S
6HR MIN TEMP:  74; 6HR MAX TEMP:  80;

$$

IAZ062-063-075>077-085>089-095>099-230100-
   SOUTHEAST IOWA

CITY           SKY/WX    TMP DP  RH WIND       PRES   REMARKS
BURLINGTON     CLEAR     73  54  51 NW13G21   30.03S
6HR MIN TEMP:  73; 6HR MAX TEMP:  79;

FAIRFIELD *    CLEAR     72  50  46 NW12      30.05S
FORT MADISON * CLEAR     72  55  56 N9        30.05R
KEOKUK *       CLEAR     73  54  49 NW10G16   30.03S
OSKALOOSA *      N/A     71  50  48 NW12      30.07F
CENTERVILLE *    N/A     72  50  46 NW8       30.09S
OTTUMWA        CLEAR     73  49  42 NW15      30.07S
6HR MIN TEMP:  73; 6HR MAX TEMP:  79;

WASHINGTON *   CLEAR     70  54  56 NW13      30.06S
$$

ABBREVIATIONS USED IN REMARKS
   TC - TEMPERATURES IN CELSIUS
  WCI - WIND CHILL INDEX
   HX - HEAT INDEX
  VSB - VISIBILITY
$$





USA.gov is the U.S. government's official web portal to all federal, state and local government web resources and services.